FW4650 Weather Reports


time (UTC)temp
F
wind
direction
speed
knots
gust
knots
rain 1hr
in
rain 24hr
in
rain mn
in
humidity
%
barometer
mb
20260507034515 42 343 0.9 3.5 0.00 0.00 0.00
20260507033515 42 325 0.9 5.2 0.00 0.00 0.00
20260507032515 42 337 0.0 4.3 0.00 0.00 0.00
20260507031515 42 336 0.9 5.2 0.00 0.00 0.00
20260507030515 42 0.0 0.0 0.00 0.00 0.00
20260507025515 42 0.0 0.0 0.00 0.00 0.00
20260507024555 42 304 0.0 3.5 0.00 0.00 0.00
20260507023515 42 0.0 0.0 0.00 0.00 0.00
20260507022515 43 340 0.0 4.3 0.00 0.00 0.00
20260507021515 42 335 0.0 5.2 0.00 0.00 0.00
20260507020515 43 0.0 0.0 0.00 0.00 0.00
20260507015515 43 330 0.0 2.6 0.00 0.00 0.00
20260507014515 43 0.0 0.0 0.00 0.00 0.00
20260507013515 43 0.0 0.0 0.00 0.00 0.00
20260507012515 43 0.0 0.0 0.00 0.00 0.00
20260507011515 43 0.0 0.0 0.00 0.00 0.00
20260507010515 43 328 0.0 4.3 0.00 0.00 0.00
20260507005535 43 335 2.6 7.0 0.00 0.00 0.00
20260507004515 43 329 4.3 7.0 0.00 0.00 0.00
20260507003515 43 329 3.5 7.8 0.00 0.00 0.00
20260507002535 43 320 3.5 7.0 0.00 0.00 0.00
20260507001535 43 321 3.5 6.1 0.00 0.00 0.00
20260507000515 43 311 1.7 5.2 0.00 0.00 0.00
20260506235515 43 317 2.6 5.2 0.00 0.00 0.00
20260506234535 44 328 2.6 5.2 0.00 0.00 0.00
20260506233515 44 321 2.6 5.2 0.00 0.00 0.00
20260506232515 44 323 2.6 5.2 0.00 0.00 0.00
20260506231515 44 333 3.5 7.0 0.00 0.00 0.00
20260506230515 44 330 4.3 6.1 0.00 0.00 0.00
20260506225515 44 331 3.5 6.1 0.00 0.00 0.00
20260506224515 45 329 3.5 6.1 0.00 0.00 0.00
20260506223515 45 331 4.3 7.8 0.00 0.00 0.00
20260506222515 45 333 5.2 8.7 0.00 0.00 0.00
20260506221515 45 340 6.1 9.6 0.00 0.00 0.00
20260506220515 45 341 6.1 7.8 0.00 0.00 0.00
20260506215515 45 342 6.1 9.6 0.00 0.00 0.00
20260506214515 46 342 6.1 9.6 0.00 0.00 0.00
20260506213515 46 343 7.8 10.4 0.00 0.00 0.00
20260506212515 46 345 7.8 10.4 0.00 0.00 0.00
20260506211535 46 351 7.0 9.6 0.00 0.00 0.00
20260506210515 47 344 7.8 10.4 0.00 0.00 0.00
20260506205515 47 353 7.0 10.4 0.00 0.00 0.00
20260506204516 47 354 8.7 11.3 0.00 0.00 0.00
20260506203515 47 354 8.7 12.2 0.00 0.00 0.00
20260506202535 47 353 8.7 11.3 0.00 0.00 0.00
20260506201515 48 346 7.8 9.6 0.00 0.00 0.00
20260506200515 48 355 7.8 10.4 0.00 0.00 0.00
20260506195535 48 352 9.6 13.0 0.00 0.00 0.00
20260506194515 48 360 9.6 13.0 0.00 0.00 0.00
20260506193535 49 1 10.4 13.9 0.00 0.00 0.00
20260506192515 49 357 10.4 12.2 0.00 0.00 0.00
20260506191515 50 11 10.4 13.0 0.00 0.00 0.00
20260506190535 50 11 9.6 13.0 0.00 0.00 0.00
20260506185535 50 0 10.4 13.9 0.00 0.00 0.00
20260506184515 51 352 12.2 16.5 0.00 0.00 0.00
20260506183515 51 352 12.2 16.5 0.00 0.00 0.00
20260506182515 52 355 11.3 13.9 0.00 0.00 0.00
20260506181516 52 356 11.3 15.6 0.00 0.00 0.00
20260506180515 53 2 13.9 18.2 0.00 0.00 0.00
20260506175515 53 1 14.8 19.1 0.00 0.00 0.00
20260506174515 53 4 15.6 20.0 0.00 0.00 0.00
20260506173515 54 356 14.8 20.0 0.00 0.00 0.00
20260506172515 54 1 13.0 17.4 0.00 0.00 0.00
20260506171515 54 1 13.9 19.1 0.00 0.00 0.00
20260506170535 54 2 14.8 20.0 0.00 0.00 0.00
20260506165515 54 359 16.5 21.7 0.00 0.00 0.00
20260506164515 55 2 14.8 19.1 0.00 0.00 0.00
20260506163515 55 6 17.4 21.7 0.00 0.00 0.00
20260506162515 56 3 15.6 20.9 0.00 0.00 0.00
20260506161515 55 1 16.5 20.9 0.00 0.00 0.00
20260506160515 55 2 15.6 19.1 0.00 0.00 0.00
20260506155515 55 359 15.6 20.9 0.00 0.00 0.00
20260506154515 55 2 14.8 20.9 0.00 0.00 0.00
20260506153515 55 356 16.5 20.9 0.00 0.00 0.00
20260506152515 56 6 16.5 20.9 0.00 0.00 0.00
20260506151515 57 1 16.5 21.7 0.00 0.00 0.00
20260506150515 57 0 16.5 20.9 0.00 0.00 0.00
20260506145515 57 3 15.6 19.1 0.00 0.00 0.00
20260506144515 56 1 16.5 23.5 0.00 0.00 0.00
20260506143515 57 8 15.6 20.0 0.00 0.00 0.00
20260506142515 57 3 16.5 21.7 0.00 0.00 0.00
20260506141515 57 6 15.6 22.6 0.00 0.00 0.00
20260506140515 57 7 16.5 20.9 0.00 0.00 0.00
20260506135535 58 3 14.8 20.9 0.00 0.00 0.00
20260506134515 57 7 17.4 21.7 0.00 0.00 0.00
20260506133515 58 6 17.4 22.6 0.00 0.00 0.00
20260506132515 58 7 15.6 21.7 0.00 0.00 0.00
20260506131515 58 16 15.6 20.9 0.00 0.00 0.00
20260506130515 59 15 16.5 21.7 0.00 0.00 0.00
20260506125535 59 8 15.6 19.1 0.00 0.00 0.00
20260506124515 58 13 18.2 24.3 0.00 0.00 0.00
20260506123535 58 7 16.5 23.5 0.00 0.00 0.00
20260506122555 59 5 15.6 25.2 0.00 0.00 0.00
20260506121515 59 18 14.8 20.0 0.00 0.00 0.00
20260506120515 58 18 15.6 20.0 0.00 0.00 0.00
20260506115535 59 12 16.5 22.6 0.00 0.00 0.00
20260506114515 58 25 19.1 23.5 0.00 0.00 0.00
20260506113515 59 18 17.4 21.7 0.00 0.00 0.00
20260506112515 59 10 15.6 20.9 0.00 0.00 0.00
20260506111516 59 10 15.6 19.1 0.00 0.00 0.00
20260506110515 59 6 13.9 19.1 0.00 0.00 0.00
20260506105515 59 28 16.5 21.7 0.00 0.00 0.00
20260506104515 58 37 16.5 20.9 0.00 0.00 0.00
20260506103515 58 26 15.6 20.0 0.00 0.00 0.00
20260506102515 59 19 15.6 20.9 0.00 0.00 0.00
20260506101535 58 27 15.6 20.0 0.00 0.00 0.00
20260506100515 58 23 15.6 19.1 0.00 0.00 0.00
20260506095515 58 28 15.6 20.0 0.00 0.00 0.00
20260506094515 58 15 15.6 20.9 0.00 0.00 0.00
20260506093515 58 15 16.5 20.0 0.00 0.00 0.00
20260506092515 58 24 14.8 20.0 0.00 0.00 0.00
20260506091515 59 18 13.9 18.2 0.00 0.00 0.00
20260506090515 58 17 16.5 20.9 0.00 0.00 0.00
20260506085515 59 15 14.8 18.2 0.00 0.00 0.00
20260506084515 58 16 14.8 19.1 0.00 0.00 0.00
20260506083515 57 25 15.6 21.7 0.00 0.00 0.00
20260506082515 58 12 13.9 17.4 0.00 0.00 0.00
20260506081515 58 9 13.0 17.4 0.00 0.00 0.00
20260506080515 57 14 14.8 17.4 0.00 0.00 0.00
20260506073515 55 8 13.0 15.6 0.00 0.00 0.00
20260506072515 54 14 13.9 18.2 0.00 0.00 0.00
20260506071515 54 11 13.0 15.6 0.00 0.00 0.00
20260506070555 53 9 13.0 17.4 0.00 0.00 0.00
20260506062515 53 13 13.9 17.4 0.00 0.00 0.00
20260506061515 55 13 14.8 20.0 0.00 0.00 0.00
20260506060515 62 9 12.2 16.5 0.00 0.00 0.00
20260506050515 52 352 5.2 8.7 0.00 0.00 0.00
20260506044515 50 0 7.0 11.3 0.00 0.00 0.00
20260506043636 49 1 7.8 11.3 0.00 0.00 0.00
20260506042515 49 4 8.7 13.0 0.00 0.00 0.00
20260506041515 49 4 12.2 15.6 0.00 0.00 0.00
20260506040535 49 359 11.3 14.8 0.00 0.00 0.00
20260506035515 49 353 8.7 13.0 0.00 0.00 0.00